This demonstration page uses our WeatherBlox Daily Observations layout. Learn more.

Hourly Observations for February 2, 2019

Temp ( °F °C ) Dew Point ( °F °C ) Humidity (%) Winds ( mph kmh ) Pressure ( in mb ) Visibility ( mi km ) Precip ( " mm )
12:15 am 00:15 Partly Cloudy 19 -7 18 -8 93 93 Calm 30.48 1032 10 16.09344 0 0
12:35 am 00:35 Clear 18 -8 18 -8 100 100 Calm 30.48 1032 10 16.09344 0 0
12:55 am 00:55 Clear 18 -8 18 -8 100 100 W 3 6 30.48 1032 10 16.09344 0 0
1:15 am 01:15 Clear 18 -8 18 -8 100 100 Calm 30.48 1032 10 16.09344 0 0
1:35 am 01:35 Clear 18 -8 18 -8 100 100 Calm 30.48 1032 10 16.09344 0 0
1:55 am 01:55 Clear 12 -11 12 -11 100 100 Calm 30.48 1032 10 16.09344 0 0
2:15 am 02:15 Clear 14 -10 14 -10 100 100 WNW 3 6 30.48 1032 10 16.09344 0 0
2:35 am 02:35 Clear 14 -10 14 -10 100 100 NW 5 7 30.48 1032 7 11.265408 0 0
2:55 am 02:55 Clear 12 -11 12 -11 100 100 Calm 30.45 1031 10 16.09344 0 0
3:15 am 03:15 Clear 12 -11 12 -11 100 100 Calm 30.45 1031 7 11.265408 0 0
3:35 am 03:35 Clear 12 -11 10 -12 92 92 Calm 30.45 1031 10 16.09344 0 0
3:55 am 03:55 Clear 10 -12 10 -12 100 100 Calm 30.45 1031 10 16.09344 0 0
4:15 am 04:15 Clear 12 -11 12 -11 100 100 WNW 3 6 30.45 1031 10 16.09344 0 0
4:35 am 04:35 Clear 12 -11 12 -11 100 100 Calm 30.45 1031 10 16.09344 0 0
4:55 am 04:55 Clear 12 -11 10 -12 92 92 Calm 30.45 1031 10 16.09344 0 0
5:15 am 05:15 Clear 12 -11 10 -12 92 92 Calm 30.45 1031 10 16.09344 0 0
5:35 am 05:35 Clear 10 -12 9 -13 92 92 Calm 30.45 1031 10 16.09344 0 0
5:55 am 05:55 Clear 10 -12 10 -12 100 100 Calm 30.45 1031 10 16.09344 0 0
6:15 am 06:15 Clear 9 -13 9 -13 100 100 W 3 6 30.42 1030 10 16.09344 0 0
6:35 am 06:35 Clear 10 -12 10 -12 100 100 Calm 30.42 1030 10 16.09344 0 0
6:55 am 06:55 Clear 9 -13 9 -13 100 100 Calm 30.42 1030 10 16.09344 0 0
7:15 am 07:15 Clear 10 -12 9 -13 92 92 Calm 30.42 1030 10 16.09344 0 0
7:35 am 07:35 Sunny 10 -12 10 -12 100 100 Calm 30.45 1031 10 16.09344 0 0
7:55 am 07:55 Sunny 10 -12 10 -12 100 100 Calm 30.45 1031 10 16.09344 0 0
8:15 am 08:15 Sunny 12 -11 10 -12 92 92 Calm 30.45 1031 10 16.09344 0 0
8:35 am 08:35 Sunny 12 -11 12 -11 100 100 undefined N/A 30.45 1031 10 16.09344 0 0
8:55 am 08:55 Sunny 16 -9 16 -9 100 100 Calm 30.45 1031 10 16.09344 0 0
9:15 am 09:15 Sunny 19 -7 19 -7 100 100 S 3 6 30.45 1031 10 16.09344 0 0
9:35 am 09:35 Sunny 21 -6 21 -6 100 100 S 3 6 30.45 1031 10 16.09344 0 0
9:55 am 09:55 Sunny 23 -5 23 -5 100 100 S 5 7 30.39 1029 10 16.09344 0 0
10:15 am 10:15 Sunny 27 -3 21 -6 80 80 S 3 6 30.39 1029 10 16.09344 0 0
10:35 am 10:35 Sunny 28 -2 23 -5 80 80 S 5 7 30.39 1029 10 16.09344 0 0
10:55 am 10:55 Sunny 30 -1 23 -5 75 75 S 9 15 30.39 1029 10 16.09344 0 0
11:15 am 11:15 Sunny 30 -1 23 -5 75 75 S 8 13 30.36 1028 10 16.09344 0 0
11:35 am 11:35 Sunny 32 0 25 -4 75 75 S 12 19 30.36 1028 10 16.09344 0 0
11:55 am 11:55 Sunny 32 0 27 -3 80 80 S 12 19 30.33 1027 10 16.09344 0 0
12:15 pm 12:15 Sunny 34 1 27 -3 75 75 S 12 19 30.33 1027 10 16.09344 0.01 0.254
12:35 pm 12:35 Sunny 34 1 27 -3 75 75 S 7 11 30.33 1027 10 16.09344 0.02 0.508
12:55 pm 12:55 Sunny 34 1 28 -2 81 81 S 8 13 30.3 1026 10 16.09344 0.03 0.762
1:15 pm 13:15 Sunny 36 2 28 -2 75 75 S 7 11 30.3 1026 10 16.09344 0.01 0.254
1:35 pm 13:35 Sunny 36 2 28 -2 75 75 S 7 11 30.27 1025 10 16.09344 0.02 0.508
1:55 pm 13:55 Sunny 37 3 28 -2 70 70 SW 6 9 30.27 1025 10 16.09344 0.02 0.508
2:15 pm 14:15 Sunny 37 3 28 -2 70 70 S 7 11 30.27 1025 10 16.09344 0 0
2:35 pm 14:35 Sunny 37 3 30 -1 75 75 S 7 11 30.27 1025 10 16.09344 0 0
2:55 pm 14:55 Sunny 39 4 30 -1 70 70 S 5 7 30.27 1025 10 16.09344 0 0
3:15 pm 15:15 Sunny 39 4 28 -2 65 65 S 7 11 30.24 1024 10 16.09344 0 0
3:35 pm 15:35 Sunny 39 4 30 -1 70 70 S 7 11 30.24 1024 10 16.09344 0 0
3:55 pm 15:55 Sunny 41 5 30 -1 66 66 SSW 7 11 30.24 1024 10 16.09344 0 0
4:15 pm 16:15 Sunny 41 5 30 -1 66 66 S 7 11 30.24 1024 10 16.09344 0 0
4:35 pm 16:35 Sunny 41 5 30 -1 66 66 SSW 6 9 30.24 1024 10 16.09344 0 0
4:55 pm 16:55 Sunny 41 5 30 -1 66 66 S 6 9 30.24 1024 10 16.09344 0 0
5:15 pm 17:15 Sunny 37 3 30 -1 75 75 S 5 7 30.21 1023 10 16.09344 0 0
5:35 pm 17:35 Clear 37 3 30 -1 75 75 SSW 6 9 30.24 1024 10 16.09344 0 0
5:55 pm 17:55 Clear 37 3 30 -1 75 75 SSW 5 7 30.24 1024 10 16.09344 0 0
6:15 pm 18:15 Clear 36 2 30 -1 81 81 SSW 5 7 30.24 1024 10 16.09344 0 0
6:35 pm 18:35 Clear 36 2 30 -1 81 81 S 5 7 30.21 1023 10 16.09344 0 0
6:55 pm 18:55 Clear 36 2 30 -1 81 81 S 6 9 30.21 1023 10 16.09344 0 0
7:15 pm 19:15 Clear 36 2 30 -1 81 81 S 5 7 30.21 1023 10 16.09344 0 0
7:35 pm 19:35 Clear 32 0 28 -2 87 87 S 5 7 30.21 1023 10 16.09344 0 0
7:55 pm 19:55 Clear 32 0 28 -2 87 87 SSW 3 6 30.21 1023 10 16.09344 0 0
8:15 pm 20:15 Clear 32 0 30 -1 93 93 Calm 30.21 1023 10 16.09344 0 0
8:35 pm 20:35 Clear 32 0 28 -2 87 87 SW 3 6 30.21 1023 10 16.09344 0 0
8:55 pm 20:55 Clear 30 -1 28 -2 93 93 SW 6 9 30.21 1023 10 16.09344 0 0
9:15 pm 21:15 Clear 32 0 28 -2 87 87 SW 6 9 30.21 1023 10 16.09344 0 0
9:35 pm 21:35 Clear 32 0 28 -2 87 87 SW 7 11 30.21 1023 10 16.09344 0 0
9:55 pm 21:55 Clear 32 0 28 -2 87 87 SSW 3 6 30.21 1023 10 16.09344 0 0
10:15 pm 22:15 Clear 32 0 28 -2 87 87 SSW 5 7 30.21 1023 10 16.09344 0 0
10:35 pm 22:35 Clear 32 0 28 -2 87 87 SW 3 6 30.18 1022 10 16.09344 0 0
10:55 pm 22:55 Clear 30 -1 28 -2 93 93 WSW 3 6 30.18 1022 10 16.09344 0 0
11:15 pm 23:15 Clear 32 0 28 -2 87 87 Calm 30.18 1022 10 16.09344 0 0
11:35 pm 23:35 Clear 32 0 28 -2 87 87 Calm 30.18 1022 10 16.09344 0 0
11:55 pm 23:55 Clear 32 0 28 -2 87 87 Calm 30.18 1022 10 16.09344 0 0

Powered by AerisWeather